Погода в Миньяре

Россия / Челябинская область     55°04′15″N   57°32′54″E
темп.,
°C
ветер,
м/с
пор.,
м/с
влажн.,
%
обл.,
%
осадки,
мм/ч
давл.,
гПа
погр.,
м
3 марта, ср
ср323:00−10юз41495100 2.0 1003740
02:00−8ююз31395100 1.3 1001720
05:00−6юз31296100 2.9 1001689
08:00−7ююз2697100 0.7 1000236
11:00−3юз489499 1.0 1000617
14:00−2зюз4790100 0.3 1000820
17:00−3зюз3692100 0.5 1000645
20:00−5ююз2695100 0.1 999191
4 марта, чт
чт423:00−5юз389791 0.6 1000337
02:00−6юз3797100 1.0 999350
05:00−7зюз4995100 2.0 1000511
08:00−10зюз3995100 0.8 1002465
11:00−10зюз499398 1.1 1003548
14:00−7юз61192100 0.4 1002760
17:00−7юз51394100 1.6 1001867
20:00−8ююз51394100 1.7 1000973
5 марта, пт
пт523:00−7ююз51595100 4.7 9971153
02:00−3зюз71587100 3.8 9961494
05:00−6зюз51391100 3.9 998874
08:00−5зюз41094100 0.1 1001711
11:00−4зюз4895100 0.5 1001708
14:00−3зюз2496100 1.8 1001371
17:00−2юз51197100 4.4 1001871
20:00−2юз3997100 2.1 1000618
6 марта, сб
сб623:00−5ссз3696100 4.8 1002435
02:00−8з3795100 1.6 1006530
05:00−16зюз3598100 1.7 1012156
08:00−19зюз2599100 0.1 1014135
11:00−15зюз3596100 0.2 1014345
14:00−11зюз2492100 0.0 1014426
17:00−9юз0187100 0.1 1012348
20:00−12всв2292100 0.0 101125
7 марта, вс
вс723:00−13всв2293100 0.0 101028
02:00−14всв2292100 0.0 100824
05:00−15в1292100 0.0 100820
08:00−16в0093100 0.1 100920
11:00−12зюз249698 0.1 1009298
14:00−10зюз369199 0.1 1009675
17:00−11зюз479299 0.3 1010702
20:00−13юз3896100 0.3 1012376